Delta Burns Bog, British Columbia

4:56 PM PDT on April 21, 2018 (GMT -0700)
Delta Burns Bog

Weather History for CVBB - March, 2014

Change the Weather History Date:

Thursday, March 20, 2014

  Actual Average Record
Temperature  
Mean Temperature 40 °F -  
Max Temperature 50 °F - - ()
Min Temperature 31 °F - - ()
Degree Days  
Heating Degree Days 24    
Moisture  
Dew Point 32 °F    
Average Humidity 73    
Maximum Humidity 98    
Minimum Humidity 40    
Precipitation  
Precipitation 0.00 in - - ()
Sea Level Pressure  
Sea Level Pressure 30.27 in    
Wind  
Wind Speed 3 mph ()    
Max Wind Speed 7 mph    
Max Gust Speed -    
T = Trace of Precipitation, MM = Missing Value Source: Averaged Metar Reports

Daily Weather History Graph

Daily Weather History Graph

Search for Another Location

Airport or City:

Astronomy

Mar. 20, 2014 Rise Set
Actual Time 7:14 AM PDT 7:25 PM PDT
Civil Twilight 6:42 AM PDT 7:56 PM PDT
Nautical Twilight 6:05 AM PDT 8:34 PM PDT
Astronomical Twilight 5:27 AM PDT 9:12 PM PDT
Moon No Moon Rise 9:04 AM PDT (3/20)
Length of Visible Light 13h 13m
Length of Day
12h 10m
Waning Gibbous, 83% of the Moon is Illuminated
Mar 20
Waning Gibbous
Mar 23
Last Quarter
Mar 30
New
Apr 7
First Quarter
Apr 15
Full

Hourly Weather History & Observations

Time (PDT) Temp. Windchill Dew Point Humidity Pressure Visibility Wind Dir Wind Speed Gust Speed Precip Events Conditions
12:00 AM 40.6 °F 38.6 °F 35.2 °F 81% 30.13 in - SW 3.5 mph - N/A   Unknown
1:00 AM 39.2 °F 37.0 °F 34.3 °F 83% 30.16 in - WSW 3.5 mph - N/A   Unknown
2:00 AM 39.2 °F 37.0 °F 35.4 °F 86% 30.17 in - SW 3.5 mph - N/A   Unknown
3:00 AM 39.2 °F 37.0 °F 35.1 °F 85% 30.19 in - WSW 3.5 mph - N/A   Unknown
4:00 AM 38.3 °F - 32.5 °F 80% 30.20 in - West 2.3 mph - N/A   Unknown
5:00 AM 38.1 °F 34.6 °F 34.7 °F 87% 30.21 in - SW 4.6 mph - N/A   Unknown
6:00 AM 32.2 °F - 30.6 °F 94% 30.22 in - SSE 1.2 mph - N/A   Unknown
7:00 AM 33.8 °F - 33.3 °F 98% 30.24 in - West 2.3 mph - N/A   Unknown
8:00 AM 33.8 °F - 33.3 °F 98% 30.25 in - NE 1.2 mph - N/A   Unknown
9:00 AM 40.5 °F - 37.6 °F 89% 30.27 in - NNW 1.2 mph - N/A   Unknown
10:00 AM 44.2 °F - 37.8 °F 78% 30.29 in - NNW 2.3 mph - N/A   Unknown
11:00 AM 46.6 °F - 36.9 °F 69% 30.30 in - West 4.6 mph - N/A   Unknown
12:00 PM 47.5 °F - 36.7 °F 66% 30.31 in - West 5.8 mph - N/A   Unknown
1:00 PM 48.7 °F - 33.4 °F 56% 30.31 in - West 5.8 mph - N/A   Unknown
2:00 PM 49.5 °F - 30.4 °F 48% - - WSW 5.8 mph - N/A   Unknown
3:00 PM 50.2 °F - 26.4 °F 40% 30.31 in - West 4.6 mph - N/A   Unknown
4:00 PM 49.6 °F - 27.0 °F 41% 30.31 in - WNW 5.8 mph - N/A   Unknown
5:00 PM 48.9 °F - 27.1 °F 43% 30.30 in - West 6.9 mph - N/A   Unknown
6:00 PM 48.2 °F - 28.4 °F 46% 30.30 in - West 4.6 mph - N/A   Unknown
7:00 PM 44.1 °F - 29.8 °F 57% 30.31 in - WSW 2.3 mph - N/A   Unknown
8:00 PM 40.6 °F - 30.4 °F 67% 30.31 in - SW 2.3 mph - N/A   Unknown
9:00 PM 34.7 °F - 30.4 °F 84% 30.33 in - Calm Calm - N/A   Unknown
10:00 PM 31.5 °F - 28.6 °F 89% 30.34 in - ESE 1.2 mph - N/A   Unknown
11:00 PM 32.4 °F - 30.2 °F 92% 30.35 in - SSW 2.3 mph - N/A   Unknown